Weather Roundup
Issued by NWS

Home | Current Version | Previous Version | Text Only | Print | Product List | Glossary On
Versions: 1 2 3 4 5 6 7 8 9 10 11 12 13 14 15 16 17 18 19 20 21 22 23 24 25 26 27 28 29 30 31 32 33 34 35 36 37 38 39 40 41 42 43 44 45 46 47 48 49 50
000
NZUS93 KARX 290910
HRRWXR

CURRENT HOURLY OBSERVATIONS ACROSS
MUCH OF THE UPPER MISSISSIPPI VALLEY
NATIONAL WEATHER SERVICE LA CROSSE WI
400 AM CDT FRI JUL 29 2016


...SOUTHEAST MINNESOTA...


CITY           SKY/WX    TMP DP  RH WIND       PRES   REMARKS
ROCHESTER      CLOUDY    63  60  90 NE8       30.03S
ROCHESTER/MAYO CLOUDY    64  60  88 N7        30.03S
WINONA         CLOUDY    66  61  82 E8        30.01F
AUSTIN         CLOUDY    63  57  82 N6        30.01F
ALBERT LEA     HVY RAIN  64  61  88 N6        30.02F
DODGE CENTER   CLOUDY   N/A N/A N/A NE7       30.03S
PRESTON        CLOUDY    61  59  93 NE8       30.01S
OWATONNA       CLOUDY    64  61  88 N3        30.04S
FARIBAULT      CLOUDY    64  63  94 N3        30.04F
$$

...ELSEWHERE IN MINNESOTA...


CITY           SKY/WX    TMP DP  RH WIND       PRES   REMARKS
MINNEAPOLIS    PTCLDY    63  56  78 N6        30.05F
INTNL FALLS    PTCLDY    50  48  93 CALM      30.10S
DULUTH         CLEAR     51  49  92 CALM      30.11F
RED WING       CLOUDY    66  61  82 CALM      30.02F
REDWOOD FALLS  CLEAR     61  55  81 CALM      30.06F
MANKATO        PTCLDY    64  57  77 NE5       30.05S
WORTHINGTON    CLEAR     57  55  93 N7        30.07F
FAIRMONT       CLOUDY    61  54  77 N5        30.04S
$$

...SOUTHWEST WISCONSIN...


CITY           SKY/WX    TMP DP  RH WIND       PRES   REMARKS
LA CROSSE      CLOUDY    66  62  87 N6        29.99F
PRAIRIE DU CHI DRIZZLE   67  63  86 CALM      29.96S
BOSCOBEL       CLOUDY    67  62  84 NE5       29.97S
LONE ROCK      CLOUDY    66  62  87 NE8       29.97F
PLATTEVILLE    CLOUDY    67  64  91 NE10      29.96S
FORT MC COY    CLOUDY    64  60  87 NE7       30.01F
CAMP DOUGLAS   CLOUDY    64  56  76 NE8       30.00S
MAUSTON-NEW LI CLOUDY    65  60  84 NE3       30.00S
VIROQUA        CLOUDY    63  63 100 NE7       30.00F
WIS DELLS      LGT RAIN  64  61  91 NE6       29.99S
$$

...ELSEWHERE IN WISCONSIN...


CITY           SKY/WX    TMP DP  RH WIND       PRES   REMARKS
MILWAUKEE      CLOUDY    68  65  90 N13       29.94F
MADISON        CLOUDY    65  62  90 NE6       29.96F
GREEN BAY      CLOUDY    61  59  93 N8        30.01F
EAU CLAIRE     CLOUDY    63  58  83 N6        30.03S
BLACK RVR FLS  CLOUDY    64  62  95 NE5       30.02R
MEDFORD        CLOUDY    57  54  88 NE7       30.07S
WAUSAU         CLOUDY    61  53  75 N5        30.04S
WIS RAPIDS     CLOUDY    62  52  69 NE7       30.04S
MARSHFIELD     CLOUDY    62  55  77 NE7       30.04S
RICE LAKE      PTCLDY    55  52  92 CALM      30.08F
$$

...NORTHEAST IOWA...


CITY           SKY/WX    TMP DP  RH WIND       PRES   REMARKS
WATERLOO       CLOUDY    65  63  93 NW7       29.96S
DUBUQUE        CLOUDY    68  65  90 E8        29.95S
DECORAH        CLOUDY    63  63 100 NE8       29.97F
MASON CITY     CLOUDY    64  61  90 N7        30.02S
CHARLES CITY   CLOUDY    64  64 100 N5        29.99F FOG
OELWEIN        CLOUDY    66  64  94 N7        29.96F
$$

...ELSEWHERE IN IOWA...


CITY           SKY/WX    TMP DP  RH WIND       PRES   REMARKS
DES MOINES     CLOUDY    68  63  84 N9        29.97F
IOWA CITY      CLOUDY    69  65  86 NW6       29.94F
FORT DODGE     CLEAR     61  59  94 N5        30.01F
MARSHALLTOWN   CLOUDY    65  64  97 NW6       29.97S
CEDAR RAPIDS   CLOUDY    66  66 100 NW8       29.94S FOG
$$

...NORTHERN ILLINOIS...


CITY           SKY/WX    TMP DP  RH WIND       PRES   REMARKS
CHICAGO-OHARE  CLOUDY    70  68  93 N6        29.91S
CHICAGO-MIDWAY MOCLDY    72  68  87 N3        29.90F
MOLINE         CLOUDY    70  67  90 NW6       29.91S
ROCKFORD       CLOUDY    69  64  84 N9        29.94F
PEORIA         PTCLDY    69  67  93 NW3       29.90F
$$

NOTE: "FAIR" INDICATES FEW OR NO CLOUDS BELOW 12,000 FEET WITH NO
SIGNIFICANT WEATHER AND/OR OBSTRUCTIONS TO VISIBILITY. WIND
SPEEDS ARE IN MILES-PER-HOUR.




USA.gov is the U.S. government's official web portal to all federal, state and local government web resources and services.